Time,TemperatureF,DewpointF,PressureIn,WindDirection,WindDirectionDegrees,WindSpeedMPH,WindSpeedGustMPH,Humidity,HourlyPrecipIn,Conditions,Clouds,dailyrainin,SolarRadiationWatts/m^2,SoftwareType,DateUTC
2013-05-14 00:03:00,41.0,28.0,-100.00,SSW,196,2.0,4.0,59,0.00,,,0.00,0.000000,,2013-05-14 04:03:00,
2013-05-14 00:33:00,38.0,31.0,-100.00,SW,223,2.0,3.0,76,0.00,,,0.00,0.000000,,2013-05-14 04:33:00,
2013-05-14 00:43:00,38.0,31.0,-100.00,SW,223,2.0,3.0,76,0.00,,,0.00,0.000000,,2013-05-14 04:43:00,
2013-05-14 00:53:00,38.0,31.0,-100.00,SW,223,2.0,3.0,76,0.00,,,0.00,0.000000,,2013-05-14 04:53:00,
2013-05-14 01:02:00,38.0,31.0,-100.00,SW,223,2.0,3.0,76,0.00,,,0.00,0.000000,,2013-05-14 05:02:00,
2013-05-14 01:12:00,38.0,31.0,-100.00,SW,223,2.0,3.0,76,0.00,,,0.00,0.000000,,2013-05-14 05:12:00,
2013-05-14 01:13:00,37.0,30.0,-100.00,WNW,297,1.0,2.0,77,0.00,,,0.00,0.000000,,2013-05-14 05:13:00,
2013-05-14 01:32:00,37.0,30.0,-100.00,WNW,297,1.0,2.0,77,0.00,,,0.00,0.000000,,2013-05-14 05:32:00,
2013-05-14 01:42:00,37.0,30.0,-100.00,WNW,297,1.0,2.0,77,0.00,,,0.00,0.000000,,2013-05-14 05:42:00,
2013-05-14 01:52:00,37.0,30.0,-100.00,WNW,297,1.0,2.0,77,0.00,,,0.00,0.000000,,2013-05-14 05:52:00,
2013-05-14 02:01:00,37.0,30.0,-100.00,WNW,297,1.0,2.0,77,0.00,,,0.00,0.000000,,2013-05-14 06:01:00,
2013-05-14 02:32:00,37.0,30.0,-100.00,East,99,1.0,4.0,75,0.00,,,0.00,0.000000,,2013-05-14 06:32:00,
2013-05-14 02:42:00,37.0,30.0,-100.00,East,99,1.0,4.0,75,0.00,,,0.00,0.000000,,2013-05-14 06:42:00,
2013-05-14 02:52:00,37.0,30.0,-100.00,East,99,1.0,4.0,75,0.00,,,0.00,0.000000,,2013-05-14 06:52:00,
2013-05-14 03:02:00,37.0,30.0,-100.00,East,99,1.0,4.0,75,0.00,,,0.00,0.000000,,2013-05-14 07:02:00,
2013-05-14 03:11:00,37.0,30.0,-100.00,East,99,1.0,4.0,75,0.00,,,0.00,0.000000,,2013-05-14 07:11:00,
2013-05-14 03:42:00,35.0,32.0,-100.00,SSW,213,1.0,2.0,90,0.00,,,0.00,0.000000,,2013-05-14 07:42:00,
2013-05-14 03:52:00,35.0,32.0,-100.00,SSW,213,1.0,2.0,90,0.00,,,0.00,0.000000,,2013-05-14 07:52:00,
2013-05-14 04:02:00,35.0,32.0,-100.00,SSW,213,1.0,2.0,90,0.00,,,0.00,0.000000,,2013-05-14 08:02:00,
2013-05-14 04:11:00,35.0,32.0,-100.00,SSW,213,1.0,2.0,90,0.00,,,0.00,0.000000,,2013-05-14 08:11:00,
2013-05-14 04:42:00,34.0,31.0,-100.00,SSW,195,3.0,4.0,90,0.00,,,0.00,0.000000,,2013-05-14 08:42:00,
2013-05-14 04:52:00,34.0,31.0,-100.00,SSW,195,3.0,4.0,90,0.00,,,0.00,0.000000,,2013-05-14 08:52:00,
2013-05-14 05:02:00,34.0,31.0,-100.00,SSW,195,3.0,4.0,90,0.00,,,0.00,0.000000,,2013-05-14 09:02:00,
2013-05-14 05:11:00,34.0,31.0,-100.00,SSW,195,3.0,4.0,90,0.00,,,0.00,0.000000,,2013-05-14 09:11:00,
2013-05-14 05:13:00,33.0,32.0,-100.00,SSE,155,2.0,4.0,97,0.00,,,0.00,0.000000,,2013-05-14 09:13:00,
2013-05-14 05:33:00,33.0,32.0,-100.00,SSE,155,2.0,4.0,97,0.00,,,0.00,0.000000,,2013-05-14 09:33:00,
2013-05-14 05:44:00,33.0,32.0,-100.00,SSE,155,2.0,4.0,97,0.00,,,0.00,0.000000,,2013-05-14 09:44:00,
2013-05-14 05:54:00,33.0,32.0,-100.00,SSE,155,2.0,4.0,97,0.00,,,0.00,0.000000,,2013-05-14 09:54:00,
2013-05-14 06:05:00,33.0,32.0,-100.00,SSE,155,2.0,4.0,97,0.00,,,0.00,0.000000,,2013-05-14 10:05:00,
2013-05-14 06:33:00,33.0,32.0,-100.00,SSW,207,3.0,4.0,96,0.00,,,0.00,2.000000,,2013-05-14 10:33:00,
2013-05-14 06:42:00,33.0,32.0,-100.00,SSW,207,3.0,4.0,96,0.00,,,0.00,2.000000,,2013-05-14 10:42:00,
2013-05-14 06:53:00,33.0,32.0,-100.00,SSW,207,3.0,4.0,96,0.00,,,0.00,2.000000,,2013-05-14 10:53:00,
2013-05-14 07:03:00,33.0,32.0,-100.00,SSW,207,3.0,4.0,96,0.00,,,0.00,2.000000,,2013-05-14 11:03:00,
2013-05-14 07:11:00,33.0,32.0,-100.00,SSW,207,3.0,4.0,96,0.00,,,0.00,2.000000,,2013-05-14 11:11:00,
2013-05-14 07:32:00,34.0,32.0,-100.00,South,185,1.0,3.0,94,0.00,,,0.00,30.000000,,2013-05-14 11:32:00,
2013-05-14 07:43:00,34.0,32.0,-100.00,South,185,1.0,3.0,94,0.00,,,0.00,30.000000,,2013-05-14 11:43:00,
2013-05-14 07:53:00,34.0,32.0,-100.00,South,185,1.0,3.0,94,0.00,,,0.00,30.000000,,2013-05-14 11:53:00,
2013-05-14 08:03:00,34.0,32.0,-100.00,South,185,1.0,3.0,94,0.00,,,0.00,30.000000,,2013-05-14 12:03:00,
2013-05-14 08:12:00,34.0,32.0,-100.00,South,185,1.0,3.0,94,0.00,,,0.00,30.000000,,2013-05-14 12:12:00,
2013-05-14 08:42:00,40.0,36.0,-100.00,South,176,2.0,4.0,84,0.00,,,0.00,174.000000,,2013-05-14 12:42:00,
2013-05-14 08:52:00,40.0,36.0,-100.00,South,176,2.0,4.0,84,0.00,,,0.00,174.000000,,2013-05-14 12:52:00,
2013-05-14 09:01:00,40.0,36.0,-100.00,South,176,2.0,4.0,84,0.00,,,0.00,174.000000,,2013-05-14 13:01:00,
2013-05-14 09:11:00,40.0,36.0,-100.00,South,176,2.0,4.0,84,0.00,,,0.00,174.000000,,2013-05-14 13:11:00,
2013-05-14 09:42:00,45.0,37.0,-100.00,South,177,2.0,4.0,72,0.00,,,0.00,298.000000,,2013-05-14 13:42:00,
2013-05-14 09:52:00,45.0,37.0,-100.00,South,177,2.0,4.0,72,0.00,,,0.00,298.000000,,2013-05-14 13:52:00,
2013-05-14 10:01:00,45.0,37.0,-100.00,South,177,2.0,4.0,72,0.00,,,0.00,298.000000,,2013-05-14 14:01:00,
2013-05-14 10:11:00,45.0,37.0,-100.00,South,177,2.0,4.0,72,0.00,,,0.00,298.000000,,2013-05-14 14:11:00,
2013-05-14 10:32:00,52.0,36.0,-100.00,SSE,150,4.0,7.0,54,0.00,,,0.00,559.000000,,2013-05-14 14:32:00,
2013-05-14 10:42:00,52.0,36.0,-100.00,SSE,150,4.0,7.0,54,0.00,,,0.00,559.000000,,2013-05-14 14:42:00,
2013-05-14 10:53:00,52.0,36.0,-100.00,SSE,150,4.0,7.0,54,0.00,,,0.00,559.000000,,2013-05-14 14:53:00,
2013-05-14 11:01:00,52.0,36.0,-100.00,SSE,150,4.0,7.0,54,0.00,,,0.00,559.000000,,2013-05-14 15:01:00,
2013-05-14 11:12:00,52.0,36.0,-100.00,SSE,150,4.0,7.0,54,0.00,,,0.00,559.000000,,2013-05-14 15:12:00,
2013-05-14 11:33:00,56.0,33.0,-100.00,SSW,208,5.0,10.0,42,0.00,,,0.00,745.000000,,2013-05-14 15:33:00,
2013-05-14 11:43:00,56.0,33.0,-100.00,SSW,208,5.0,10.0,42,0.00,,,0.00,745.000000,,2013-05-14 15:43:00,
2013-05-14 11:53:00,56.0,33.0,-100.00,SSW,208,5.0,10.0,42,0.00,,,0.00,745.000000,,2013-05-14 15:53:00,
2013-05-14 12:02:00,56.0,33.0,-100.00,SSW,208,5.0,10.0,42,0.00,,,0.00,745.000000,,2013-05-14 16:02:00,
2013-05-14 12:12:00,56.0,33.0,-100.00,SSW,208,5.0,10.0,42,0.00,,,0.00,745.000000,,2013-05-14 16:12:00,
2013-05-14 12:13:00,59.0,33.0,-100.00,SW,221,4.0,10.0,37,0.00,,,0.00,799.000000,,2013-05-14 16:13:00,
2013-05-14 12:33:00,59.0,33.0,-100.00,SW,221,4.0,10.0,37,0.00,,,0.00,799.000000,,2013-05-14 16:33:00,
2013-05-14 12:44:00,59.0,33.0,-100.00,SW,221,4.0,10.0,37,0.00,,,0.00,799.000000,,2013-05-14 16:44:00,
2013-05-14 12:54:00,59.0,33.0,-100.00,SW,221,4.0,10.0,37,0.00,,,0.00,799.000000,,2013-05-14 16:54:00,
2013-05-14 13:03:00,59.0,33.0,-100.00,SW,221,4.0,10.0,37,0.00,,,0.00,799.000000,,2013-05-14 17:03:00,
2013-05-14 13:43:00,62.0,29.0,-100.00,WNW,301,6.0,11.0,28,0.00,,,0.00,899.000000,,2013-05-14 17:43:00,
2013-05-14 13:52:00,62.0,29.0,-100.00,WNW,301,6.0,11.0,28,0.00,,,0.00,899.000000,,2013-05-14 17:52:00,
2013-05-14 14:02:00,62.0,29.0,-100.00,WNW,301,6.0,11.0,28,0.00,,,0.00,899.000000,,2013-05-14 18:02:00,
2013-05-14 14:12:00,62.0,29.0,-100.00,WNW,301,6.0,11.0,28,0.00,,,0.00,899.000000,,2013-05-14 18:12:00,
2013-05-14 14:42:00,64.0,30.0,-100.00,SSW,201,5.0,11.0,28,0.00,,,-99.99,845.000000,,2013-05-14 18:42:00,
2013-05-14 14:52:00,64.0,30.0,-100.00,SSW,201,5.0,11.0,28,0.00,,,-99.99,845.000000,,2013-05-14 18:52:00,
2013-05-14 15:02:00,64.0,30.0,-100.00,SSW,201,5.0,11.0,28,0.00,,,-99.99,845.000000,,2013-05-14 19:02:00,
2013-05-14 15:12:00,64.0,30.0,-100.00,SSW,201,5.0,11.0,28,0.00,,,-99.99,845.000000,,2013-05-14 19:12:00,
2013-05-14 15:42:00,62.0,31.0,-100.00,WNW,284,3.0,10.0,31,0.00,,,0.00,293.000000,,2013-05-14 19:42:00,
2013-05-14 15:53:00,62.0,31.0,-100.00,WNW,284,3.0,10.0,31,0.00,,,0.00,293.000000,,2013-05-14 19:53:00,
2013-05-14 16:02:00,62.0,31.0,-100.00,WNW,284,3.0,10.0,31,0.00,,,0.00,293.000000,,2013-05-14 20:02:00,
2013-05-14 16:11:00,62.0,31.0,-100.00,WNW,284,3.0,10.0,31,0.00,,,0.00,293.000000,,2013-05-14 20:11:00,
2013-05-14 16:44:00,62.0,33.0,-100.00,NW,315,3.0,7.0,33,0.00,,,0.00,176.000000,,2013-05-14 20:44:00,
2013-05-14 16:52:00,62.0,33.0,-100.00,NW,315,3.0,7.0,33,0.00,,,0.00,176.000000,,2013-05-14 20:52:00,
2013-05-14 17:03:00,62.0,33.0,-100.00,NW,315,3.0,7.0,33,0.00,,,0.00,176.000000,,2013-05-14 21:03:00,
2013-05-14 17:12:00,62.0,33.0,-100.00,NW,315,3.0,7.0,33,0.00,,,0.00,176.000000,,2013-05-14 21:12:00,
2013-05-14 18:45:00,61.0,35.0,-100.00,SSE,167,4.0,5.0,37,-99.99,,,0.00,79.000000,,2013-05-14 22:45:00,
2013-05-14 18:55:00,61.0,35.0,-100.00,SSE,167,4.0,5.0,37,-99.99,,,0.00,79.000000,,2013-05-14 22:55:00,
2013-05-14 19:04:00,61.0,35.0,-100.00,SSE,167,4.0,5.0,37,-99.99,,,0.00,79.000000,,2013-05-14 23:04:00,
2013-05-14 19:12:00,61.0,35.0,-100.00,SSE,167,4.0,5.0,37,-99.99,,,0.00,79.000000,,2013-05-14 23:12:00,
2013-05-14 19:32:00,60.0,36.0,-100.00,East,85,3.0,8.0,41,0.00,,,0.00,55.000000,,2013-05-14 23:32:00,
2013-05-14 19:44:00,60.0,36.0,-100.00,East,85,3.0,8.0,41,0.00,,,0.00,55.000000,,2013-05-14 23:44:00,
2013-05-14 19:53:00,60.0,36.0,-100.00,East,85,3.0,8.0,41,0.00,,,0.00,55.000000,,2013-05-14 23:53:00,
2013-05-14 20:02:00,60.0,36.0,-100.00,East,85,3.0,8.0,41,0.00,,,0.00,55.000000,,2013-05-15 00:02:00,
2013-05-14 20:11:00,60.0,36.0,-100.00,East,85,3.0,8.0,41,0.00,,,0.00,55.000000,,2013-05-15 00:11:00,
2013-05-14 21:32:00,56.0,36.0,-100.00,East,81,4.0,9.0,47,-99.99,,,0.00,0.000000,,2013-05-15 01:32:00,
2013-05-14 21:42:00,56.0,36.0,-100.00,East,81,4.0,9.0,47,-99.99,,,0.00,0.000000,,2013-05-15 01:42:00,
2013-05-14 21:52:00,56.0,36.0,-100.00,East,81,4.0,9.0,47,-99.99,,,0.00,0.000000,,2013-05-15 01:52:00,
2013-05-14 22:02:00,56.0,36.0,-100.00,East,81,4.0,9.0,47,-99.99,,,0.00,0.000000,,2013-05-15 02:02:00,
2013-05-14 22:11:00,56.0,36.0,-100.00,East,81,4.0,9.0,47,-99.99,,,0.00,0.000000,,2013-05-15 02:11:00,
2013-05-14 22:13:00,55.0,37.0,-100.00,North,8,1.0,5.0,50,0.00,,,0.00,0.000000,,2013-05-15 02:13:00,
2013-05-14 22:32:00,55.0,37.0,-100.00,North,8,1.0,5.0,50,0.00,,,0.00,0.000000,,2013-05-15 02:32:00,
2013-05-14 22:42:00,55.0,37.0,-100.00,North,8,1.0,5.0,50,0.00,,,0.00,0.000000,,2013-05-15 02:42:00,
2013-05-14 22:52:00,55.0,37.0,-100.00,North,8,1.0,5.0,50,0.00,,,0.00,0.000000,,2013-05-15 02:52:00,
2013-05-14 23:01:00,55.0,37.0,-100.00,North,8,1.0,5.0,50,0.00,,,0.00,0.000000,,2013-05-15 03:01:00,
2013-05-14 23:44:00,54.0,39.0,-100.00,NNE,13,2.0,5.0,56,0.00,,,0.00,0.000000,,2013-05-15 03:44:00,
2013-05-14 23:54:00,54.0,39.0,-100.00,NNE,13,2.0,5.0,56,0.00,,,0.00,0.000000,,2013-05-15 03:54:00,